TimeEDT,TemperatureF,Dew PointF,Humidity,Sea Level PressureIn,VisibilityMPH,Wind Direction,Wind SpeedMPH,Gust SpeedMPH,PrecipitationIn,Events,Conditions,WindDirDegrees,DateUTC
12:55 AM,35.2,30.0,81,30.61,10.0,Calm,Calm,-,N/A,,Clear,0,2013-04-22 04:55:00
1:55 AM,32.5,28.9,87,30.59,10.0,Calm,Calm,-,N/A,,Clear,0,2013-04-22 05:55:00
2:55 AM,33.4,28.8,83,30.58,10.0,ENE,4.6,-,N/A,,Clear,60,2013-04-22 06:55:00
3:55 AM,32.0,27.7,84,30.58,10.0,ENE,6.9,-,N/A,,Clear,60,2013-04-22 07:55:00
4:55 AM,32.9,28.4,84,30.59,10.0,NE,4.6,-,N/A,,Clear,50,2013-04-22 08:55:00
5:55 AM,31.1,27.7,87,30.58,10.0,NE,6.9,-,N/A,,Clear,50,2013-04-22 09:55:00
6:55 AM,33.6,30.2,87,30.59,10.0,ENE,8.1,-,N/A,,Clear,60,2013-04-22 10:55:00
7:55 AM,42.1,33.4,71,30.58,10.0,ENE,10.4,-,N/A,,Clear,70,2013-04-22 11:55:00
8:55 AM,45.9,31.5,57,30.60,10.0,ESE,17.3,-,N/A,,Partly Cloudy,110,2013-04-22 12:55:00
9:55 AM,47.5,31.8,55,30.59,10.0,East,16.1,-,N/A,,Scattered Clouds,80,2013-04-22 13:55:00
10:55 AM,47.7,32.2,55,30.60,10.0,ESE,20.7,24.2,N/A,,Mostly Cloudy,110,2013-04-22 14:55:00
11:55 AM,47.8,32.2,55,30.58,10.0,ESE,18.4,27.6,N/A,,Overcast,110,2013-04-22 15:55:00
12:55 PM,49.1,32.2,52,30.58,10.0,East,18.4,24.2,N/A,,Overcast,80,2013-04-22 16:55:00
1:55 PM,48.0,32.2,54,30.56,10.0,East,17.3,24.2,N/A,,Overcast,80,2013-04-22 17:55:00
2:55 PM,47.7,33.1,57,30.55,10.0,East,17.3,-,N/A,,Overcast,90,2013-04-22 18:55:00
3:55 PM,47.5,32.7,57,30.52,10.0,East,15.0,25.3,N/A,,Overcast,90,2013-04-22 19:55:00
4:55 PM,47.7,32.9,57,30.51,10.0,East,15.0,-,N/A,,Overcast,90,2013-04-22 20:55:00
5:51 PM,48.2,35.6,62,30.49,10.0,East,15.0,-,N/A,,Overcast,90,2013-04-22 21:51:00
5:55 PM,47.7,34.9,61,30.49,10.0,East,15.0,20.7,N/A,,Overcast,90,2013-04-22 21:55:00
6:55 PM,46.0,35.2,66,30.48,10.0,East,17.3,20.7,N/A,,Overcast,100,2013-04-22 22:55:00
7:55 PM,45.1,36.9,73,30.48,10.0,East,16.1,-,N/A,,Overcast,90,2013-04-22 23:55:00
8:03 PM,44.6,37.4,76,30.48,10.0,East,17.3,-,N/A,,Overcast,90,2013-04-23 00:03:00
8:55 PM,44.8,38.1,77,30.48,10.0,East,15.0,-,N/A,,Overcast,90,2013-04-23 00:55:00
9:55 PM,44.6,38.3,79,30.47,10.0,East,15.0,26.5,N/A,,Overcast,90,2013-04-23 01:55:00
10:06 PM,44.6,39.2,81,30.47,10.0,East,13.8,27.6,N/A,,Overcast,90,2013-04-23 02:06:00
10:47 PM,44.6,37.4,76,30.46,10.0,East,12.7,-,N/A,,Overcast,80,2013-04-23 02:47:00
10:55 PM,44.2,38.1,79,30.45,10.0,East,16.1,23.0,N/A,,Overcast,80,2013-04-23 02:55:00
11:55 PM,43.9,37.0,77,30.45,10.0,East,16.1,21.9,N/A,,Overcast,90,2013-04-23 03:55:00